Location: Earls Croome
(52.0667°N, 2.2000°W)
Time: 06:25:43
(UTC+00:00)

ATLAS 2AS CENTAUR R/B - Pass Details

Date: 17 November 2019
Orbit: 926 x 1286 km, 63.7° (Epoch: 09 December)

Event Time Altitude Azimuth Distance (km) Brightness Sun altitude
Exits shadow 05:19:27 25° 308° (NW) 2,262 3.9 -20.0°
Maximum altitude 05:24:15 68° 233° (SW) 1,266 2.9 -19.3°
Drops below altitude 10° 05:31:18 10° 152° (SSE) 2,965 5.5 -18.2°
Sets 05:33:52 0° 150° (SSE) 3,868 6.2 -17.8°
